Meath Environmental Platform

Observations for Trim Market St

Time AQI Temp °C Hum % Pres Pa CO μg/m³ H₂S μg/m³ NO μg/m³ NO₂ μg/m³ O₃ μg/m³ SO₂ μg/m³ PM1 μg/m³ PM2.5 μg/m³ PM10 μg/m³
Wednesday 15 July 2026
12:40 1 36.5 32 66,539 0 0 0 0 28.99 0 8.55 13.49 17.76
12:39 1 36.5 32 66,529 0 0 0 5.8 44.34 0 7.84 12.41 16.06
12:37 1 36.5 32 66,521 0 0 0 0.14 36.45 0 7.84 11.89 15.22
12:36 1 36.4 32 66,507 0 0 0 0 27.25 0 8.55 12.41 16.06
12:34 1 36.3 32 66,497 0 0 0 8.1 30.45 0 7.84 11.84 17.73
12:32 1 36.2 32 66,474 0.15 0 0 0.44 26.67 0 8.55 14 18.58
12:31 1 36.1 32 66,469 0 0 0 0 30.86 0 7.84 12.91 16.87
12:27 1 35.9 33 66,418 0 0 0 0 35.37 0 7.84 12.89 17.7
12:24 1 35.7 33 66,445 0 0 0 0 30.16 0 7.84 15.03 21.07
12:22 1 35.6 33 66,435 0 0 0 0 34.16 0 7.84 13.39 18.5
12:16 1 35.2 34 66,388 0 0 0 0 38.97 0 11.4 16.59 24.37
12:12 1 35.1 33 66,382 0 0 0 0 37.24 0 11.4 15 20.19
12:11 1 35.1 33 66,372 0 0 0 0 38.8 0 9.26 13.39 17.66
12:10 1 35.1 33 66,388 0 0 0 0 34.4 0 9.26 14.46 19.34
12:09 1 35.1 33 66,380 0 0 0 0 39.5 0 8.55 13.39 17.66
12:08 1 35.2 33 66,368 0 0 0 0 35.69 0 9.26 14.48 21.05
12:07 1 35.2 33 66,380 0 0 0 0 36.57 0 9.26 15.55 21.89
12:06 1 35.2 33 66,372 0 0 0 0 39.84 0 8.55 15.01 20.2
12:05 1 35.2 33 66,357 0 0 0 0 34.98 0 10.69 16.09 23.58
12:04 1 35.2 34 66,339 0 0 0 0 29.15 0 10.69 16.07 21.87